EW9544 Weather Reports


time (UTC)temp
F
wind
direction
speed
knots
gust
knots
rain 1hr
in
rain 24hr
in
rain mn
in
humidity
%
barometer
mb
20260510225714 60 253 0.0 0.9 0.00 0.00 0.00 92 1011.8
20260510225214 60 253 0.0 0.9 0.00 0.00 0.00 92 1011.6
20260510224714 59 253 0.0 0.9 0.00 0.00 0.00 92 1011.7
20260510224213 59 232 0.0 0.0 0.00 0.00 0.00 92 1011.5
20260510223713 59 232 0.0 0.0 0.00 0.00 0.00 92 1011.4
20260510223213 59 231 0.0 0.0 0.00 0.00 0.00 92 1011.4
20260510222715 58 231 0.0 0.9 0.00 0.00 0.00 92 1011.4
20260510222213 59 230 0.0 0.9 0.00 0.00 0.00 91 1011.3
20260510221712 59 227 0.0 0.0 0.00 0.00 0.00 91 1011.4
20260510221213 59 183 0.0 0.0 0.00 0.00 0.00 92 1011.3
20260510220713 59 182 0.0 0.0 0.00 0.00 0.00 92 1011.3
20260510220213 59 183 0.0 0.0 0.00 0.00 0.00 92 1011.3
20260510215711 59 183 0.0 0.0 0.00 0.00 0.00 91 1011.3
20260510215210 59 197 0.0 0.0 0.00 0.00 0.00 91 1011.3
20260510214710 59 198 0.0 0.0 0.00 0.00 0.00 91 1011.3
20260510214210 59 189 0.0 0.0 0.00 0.00 0.00 91 1011.4
20260510213711 59 192 0.0 0.9 0.00 0.00 0.00 90 1011.3
20260510213211 59 185 0.0 1.7 0.00 0.00 0.00 90 1011.2
20260510212711 60 222 0.0 1.7 0.00 0.00 0.00 89 1011.2
20260510212209 60 211 0.0 0.0 0.00 0.00 0.00 88 1011.1
20260510211709 61 211 0.0 0.0 0.00 0.00 0.00 88 1011.0
20260510211211 61 211 0.0 0.0 0.00 0.00 0.00 88 1011.0
20260510210210 61 206 0.0 0.9 0.00 0.00 0.00 88 1010.8
20260510205209 61 195 0.0 0.9 0.00 0.00 0.00 88 1010.8
20260510204709 61 196 0.0 0.9 0.00 0.00 0.00 87 1010.7
20260510204211 61 239 0.0 0.0 0.00 0.00 0.00 87 1010.8
20260510203710 61 224 0.0 0.0 0.00 0.00 0.00 87 1010.7
20260510203209 61 224 0.0 0.0 0.00 0.00 0.00 87 1010.6
20260510202711 61 224 0.0 0.0 0.00 0.00 0.00 87 1010.7
20260510202210 61 221 0.0 0.0 0.00 0.00 0.00 87 1010.7
20260510201709 61 191 0.0 0.0 0.00 0.00 0.00 87 1010.8
20260510201209 61 209 0.0 3.5 0.00 0.00 0.00 86 1010.8
20260510200210 63 260 0.0 0.9 0.00 0.00 0.00 84 1010.9
20260510195710 64 241 0.0 0.9 0.00 0.00 0.00 84 1010.8
20260510195211 64 239 0.0 0.9 0.00 0.00 0.00 84 1010.7
20260510194710 63 239 0.0 0.9 0.00 0.00 0.00 85 1010.7
20260510194209 62 241 0.0 0.0 0.00 0.00 0.00 86 1010.9
20260510193209 61 242 0.0 0.9 0.00 0.00 0.00 87 1011.0
20260510191708 60 242 0.0 1.7 0.00 0.00 0.00 88 1011.2
20260510191208 60 243 0.0 1.7 0.00 0.00 0.00 88 1011.2
20260510190707 60 241 0.0 0.9 0.00 0.00 0.00 88 1011.3
20260510185708 60 246 0.9 2.6 0.00 0.00 0.00 88 1011.5
20260510185207 60 246 0.9 2.6 0.00 0.00 0.00 88 1011.5
20260510184707 60 249 0.0 2.6 0.00 0.00 0.00 88 1011.6
20260510184205 60 245 0.0 0.9 0.00 0.00 0.00 88 1011.5
20260510183703 60 249 0.0 1.7 0.00 0.00 0.00 88 1011.5
20260510183204 60 251 0.0 1.7 0.00 0.00 0.00 87 1011.5
20260510182204 61 261 0.0 0.9 0.00 0.00 0.00 86 1011.4
20260510181704 61 256 0.0 0.9 0.00 0.00 0.00 85 1011.4
20260510181203 61 263 0.0 1.7 0.00 0.00 0.00 85 1011.4
20260510175703 61 251 0.0 2.6 0.00 0.00 0.00 86 1011.5
20260510175203 61 258 0.9 7.0 0.00 0.00 0.00 88 1011.5
20260510174701 61 262 0.9 7.0 0.00 0.00 0.00 88 1011.6
20260510174203 61 240 0.0 2.6 0.00 0.00 0.00 89 1011.5
20260510173701 60 267 0.0 3.5 0.00 0.00 0.00 90 1011.5
20260510173202 60 250 0.0 3.5 0.00 0.00 0.00 90 1011.6
20260510172203 59 253 0.9 5.2 0.00 0.00 0.00 92 1011.7
20260510171702 59 241 0.0 5.2 0.00 0.00 0.00 92 1011.7
20260510171202 59 264 0.0 1.7 0.00 0.00 0.00 93 1011.7
20260510170702 59 258 0.0 1.7 0.00 0.00 0.00 93 1011.6
20260510170200 58 173 0.0 1.7 0.00 0.00 0.00 94 1011.7
20260510164658 58 310 0.0 1.7 0.00 0.00 0.00 96 1011.8
20260510164159 58 256 0.0 1.7 0.00 0.00 0.00 96 1011.9
20260510163159 57 237 0.0 0.9 0.00 0.00 0.00 97 1012.0
20260510162659 57 269 0.0 1.7 0.00 0.00 0.00 97 1011.9
20260510162200 57 255 0.0 1.7 0.00 0.00 0.00 97 1011.8
20260510161700 56 266 0.0 1.7 0.00 0.00 0.00 97 1011.9
20260510161200 56 268 0.0 1.7 0.00 0.00 0.00 97 1012.0
20260510160657 56 285 0.0 1.7 0.00 0.00 0.00 97 1011.9
20260510160158 56 267 0.0 0.0 0.00 0.00 0.00 97 1012.0
20260510155658 56 268 0.0 0.9 0.00 0.00 0.00 97 1012.0
20260510155158 56 280 0.0 0.9 0.00 0.00 0.00 97 1012.1
20260510154658 55 266 0.0 0.9 0.00 0.00 0.00 97 1012.2
20260510154158 55 250 0.0 0.9 0.00 0.00 0.00 97 1012.1
20260510153658 55 261 0.0 0.9 0.00 0.00 0.00 97 1012.1
20260510153157 55 245 0.0 0.9 0.00 0.00 0.00 97 1012.2
20260510152656 54 359 0.0 0.9 0.00 0.00 0.00 97 1012.3
20260510151655 54 359 0.9 2.6 0.00 0.00 0.00 97 1012.3
20260510151156 54 359 0.9 3.5 0.00 0.00 0.00 97 1012.3
20260510150655 54 256 1.7 3.5 0.00 0.00 0.00 97 1012.3
20260510150156 54 243 0.9 3.5 0.00 0.00 0.00 97 1012.3
20260510145656 54 359 0.9 2.6 0.00 0.00 0.00 97 1012.4
20260510145155 53 359 0.9 2.6 0.00 0.00 0.00 97 1012.4
20260510144655 53 235 0.9 2.6 0.00 0.00 0.00 97 1012.3
20260510144156 53 359 0.9 2.6 0.00 0.00 0.00 97 1012.3
20260510143655 53 238 0.9 2.6 0.00 0.00 0.00 97 1012.2
20260510142653 53 359 0.0 0.9 0.00 0.00 0.00 97 1012.1
20260510141652 53 236 0.0 0.0 0.00 0.00 0.00 97 1011.9
20260510141153 53 237 0.0 0.0 0.00 0.00 0.00 97 1011.9
20260510140654 52 236 0.0 0.9 0.00 0.00 0.00 97 1011.9
20260510140205 52 237 0.0 0.9 0.00 0.00 0.00 97 1011.8
20260510135654 52 359 0.0 0.9 0.00 0.00 0.00 97 1011.8
20260510134652 52 235 0.0 0.9 0.00 0.00 0.00 97 1011.8
20260510134153 52 359 0.0 0.9 0.00 0.00 0.00 97 1011.8
20260510133651 52 359 0.0 0.9 0.00 0.00 0.00 97 1011.9
20260510133152 52 359 0.0 1.7 0.00 0.00 0.00 97 1011.8
20260510132650 52 224 0.0 1.7 0.00 0.00 0.00 97 1011.8
20260510132152 52 359 0.0 2.6 0.00 0.00 0.00 97 1011.8
20260510131651 52 235 0.0 2.6 0.00 0.00 0.00 97 1011.6
20260510130650 52 359 0.0 1.7 0.00 0.00 0.00 97 1011.7
20260510130152 52 359 0.0 1.7 0.00 0.00 0.00 97 1011.7
20260510125152 52 209 0.0 1.7 0.00 0.00 0.00 97 1011.6
20260510124648 52 199 0.0 0.9 0.00 0.00 0.00 97 1011.6
20260510124149 52 214 0.0 0.9 0.00 0.00 0.00 97 1011.5
20260510123649 52 209 0.0 0.9 0.00 0.00 0.00 97 1011.5
20260510123149 52 359 0.0 0.9 0.00 0.00 0.00 97 1011.4
20260510122150 52 211 0.0 0.9 0.00 0.00 0.00 97 1011.0
20260510121649 52 212 0.0 0.9 0.00 0.00 0.00 97 1011.0
20260510121148 52 193 0.0 0.9 0.00 0.00 0.00 97 1011.0
20260510114648 52 184 0.0 1.7 0.00 0.00 0.00 97 1011.0
20260510114148 52 207 0.0 1.7 0.00 0.00 0.00 97 1010.9
20260510113650 51 359 0.0 1.7 0.00 0.00 0.00 97 1010.7
20260510113150 51 214 0.0 2.6 0.00 0.00 0.00 97 1010.7
20260510112649 52 214 0.0 2.6 0.00 0.00 0.00 97 1010.8
20260510112149 52 220 0.0 0.9 0.00 0.00 0.00 97 1010.7
20260510111649 52 359 0.0 0.0 0.00 0.00 0.00 97 1010.7
20260510111149 52 205 0.0 0.0 0.00 0.00 0.00 97 1010.6
20260510110648 52 359 0.0 1.7 0.00 0.00 0.00 97 1010.7
20260510110148 51 209 0.0 1.7 0.00 0.00 0.00 97 1010.6
20260510105648 52 359 0.0 1.7 0.00 0.00 0.00 97 1010.5
20260510104649 52 228 0.0 1.7 0.00 0.00 0.00 97 1010.6
20260510104148 52 228 0.0 1.7 0.00 0.00 0.00 97 1010.7
20260510103148 52 233 0.9 1.7 0.00 0.00 0.00 97 1010.5
20260510102649 52 232 0.0 2.6 0.00 0.00 0.00 97 1010.4
20260510102149 52 359 0.9 2.6 0.00 0.00 0.00 97 1010.5
20260510101147 52 219 0.9 2.6 0.00 0.00 0.00 97 1010.5
20260510100646 51 359 0.9 2.6 0.00 0.00 0.00 97 1010.4
20260510100146 51 222 0.0 1.7 0.00 0.00 0.00 97 1010.5
20260510095146 52 220 0.0 0.9 0.00 0.00 0.00 97 1010.8
20260510094647 51 102 0.0 0.0 0.00 0.00 0.00 97 1010.9
20260510094146 51 103 0.0 0.0 0.00 0.00 0.00 97 1010.9
20260510093647 51 103 0.0 0.0 0.00 0.00 0.00 97 1010.8
20260510093147 51 102 0.0 0.9 0.00 0.00 0.00 97 1010.8
20260510092146 51 102 0.0 1.7 0.00 0.00 0.00 97 1010.8
20260510091646 52 103 0.0 1.7 0.00 0.00 0.00 97 1010.9
20260510091146 52 108 0.0 0.9 0.00 0.00 0.00 97 1010.8
20260510090646 52 52 0.0 0.9 0.00 0.00 0.00 97 1011.0
20260510090146 52 61 0.0 0.9 0.00 0.00 0.00 97 1010.9
20260510085644 52 71 0.0 0.9 0.00 0.00 0.00 97 1010.9
20260510085145 52 54 0.0 0.9 0.00 0.00 0.00 97 1010.8
20260510084644 52 77 0.0 0.9 0.00 0.00 0.00 97 1010.8
20260510084146 52 117 0.0 0.9 0.00 0.00 0.00 97 1010.8
20260510083646 51 359 0.0 0.0 0.00 0.00 0.00 97 1010.6
20260510083144 51 125 0.0 0.0 0.00 0.00 0.00 97 1011.0
20260510082645 51 124 0.0 0.9 0.00 0.00 0.00 97 1010.7
20260510082143 51 194 0.0 0.9 0.00 0.00 0.00 97 1010.5
20260510081644 51 241 0.0 0.9 0.00 0.00 0.00 97 1010.1
20260510081144 51 212 0.0 1.7 0.00 0.00 0.00 97 1010.0
20260510080642 51 222 0.0 1.7 0.00 0.00 0.00 97 1009.9
20260510080143 51 222 0.0 1.7 0.00 0.00 0.00 97 1009.9
20260510075641 52 212 0.9 1.7 0.00 0.00 0.00 97 1009.8
20260510075143 52 209 0.9 1.7 0.00 0.00 0.00 97 1009.8
20260510074642 52 359 0.0 1.7 0.00 0.00 0.00 97 1009.9
20260510073642 52 225 0.0 0.9 0.00 0.00 0.00 96 1010.0
20260510073143 52 234 0.0 0.9 0.00 0.00 0.00 96 1010.0
20260510072643 52 216 0.9 1.7 0.00 0.00 0.00 96 1010.0
20260510071641 52 235 0.0 1.7 0.00 0.00 0.00 96 1009.9
20260510070640 52 140 0.0 0.0 0.00 0.00 0.00 97 1009.9
20260510070141 52 136 0.0 0.0 0.00 0.00 0.00 97 1010.0
20260510065641 52 138 0.0 0.0 0.00 0.00 0.00 97 1010.0
20260510064640 52 135 0.0 0.0 0.00 0.00 0.00 96 1009.9
20260510064141 52 135 0.0 0.0 0.00 0.00 0.00 96 1009.8
20260510063640 52 216 0.0 0.0 0.00 0.00 0.00 96 1009.8
20260510063139 52 214 0.0 0.9 0.00 0.00 0.00 96 1009.8
20260510062638 52 224 0.0 0.9 0.00 0.00 0.00 96 1009.7
20260510061638 52 225 0.0 0.0 0.00 0.00 0.00 96 1009.6
20260510061139 52 227 0.0 0.9 0.00 0.00 0.00 96 1009.6
20260510060138 52 231 0.0 1.7 0.00 0.00 0.00 96 1009.7
20260510055638 52 219 0.0 1.7 0.00 0.00 0.00 96 1009.7
20260510055139 52 359 0.0 0.9 0.00 0.00 0.00 96 1009.7
20260510054637 52 221 0.0 1.7 0.00 0.00 0.00 96 1009.6
20260510054138 52 227 0.0 1.7 0.00 0.00 0.00 96 1009.7
20260510053635 52 210 0.0 1.7 0.00 0.00 0.00 96 1009.8
20260510053137 52 222 0.0 1.7 0.00 0.00 0.00 96 1009.8
20260510052636 53 359 0.0 0.9 0.00 0.00 0.00 96 1009.8
20260510052136 53 359 0.0 0.0 0.00 0.00 0.00 96 1009.9
20260510051637 53 182 0.0 0.0 0.00 0.00 0.00 96 1009.9
20260510051135 53 197 0.0 0.0 0.00 0.00 0.00 96 1010.0
20260510050137 53 199 0.0 0.0 0.00 0.00 0.00 96 1010.0
20260510045635 53 196 0.0 0.0 0.00 0.00 0.00 96 1009.9
20260510044634 53 180 0.0 0.9 0.00 0.00 0.00 96 1009.8
20260510044133 53 359 0.0 0.0 0.00 0.00 0.00 96 1009.9
20260510043132 53 179 0.0 0.0 0.00 0.00 0.00 96 1009.9
20260510042632 53 119 0.0 0.0 0.00 0.00 0.00 96 1009.9
20260510042133 53 90 0.0 0.0 0.00 0.00 0.00 96 1009.8
20260510041632 53 87 0.0 0.0 0.00 0.00 0.00 96 1009.8
20260510040632 53 89 0.0 0.0 0.00 0.00 0.00 96 1009.7
20260510040132 53 89 0.0 0.0 0.00 0.00 0.00 96 1009.7
20260510035632 53 89 0.0 0.0 0.00 0.00 0.00 96 1009.5
20260510035132 53 88 0.0 0.0 0.00 0.00 0.00 95 1009.6
20260510034632 53 89 0.0 0.0 0.00 0.00 0.00 95 1009.5
20260510034132 53 88 0.0 0.0 0.00 0.00 0.00 95 1009.5
20260510033131 53 87 0.0 0.0 0.00 0.00 0.00 95 1009.4
20260510032629 53 89 0.0 0.0 0.00 0.00 0.00 95 1009.5
20260510032129 53 88 0.0 0.0 0.00 0.00 0.00 95 1009.6
20260510031628 53 89 0.0 0.0 0.00 0.00 0.00 95 1009.5
20260510031130 53 95 0.0 0.0 0.00 0.00 0.00 95 1009.4
20260510030628 53 123 0.0 0.0 0.00 0.00 0.00 95 1009.5
20260510030128 53 124 0.0 0.0 0.00 0.00 0.00 95 1009.5
20260510025129 53 122 0.0 0.0 0.00 0.00 0.00 95 1009.6
20260510024629 53 125 0.0 0.0 0.00 0.00 0.00 95 1009.6
20260510024127 53 124 0.0 0.0 0.00 0.00 0.00 95 1009.6
20260510023626 53 122 0.0 0.0 0.00 0.00 0.00 95 1009.7
20260510023127 53 122 0.0 0.0 0.00 0.00 0.00 95 1009.7
20260510022626 53 124 0.0 0.0 0.00 0.00 0.00 95 1009.7
20260510022127 53 122 0.0 0.0 0.00 0.00 0.00 95 1009.6
20260510021626 53 124 0.0 0.0 0.00 0.00 0.00 95 1009.6
20260510020626 53 122 0.0 0.9 0.00 0.00 0.00 95 1009.6
20260510020126 53 124 0.0 0.9 0.00 0.00 0.00 95 1009.5
20260510015626 53 111 0.0 0.9 0.00 0.00 0.00 95 1009.6
20260510015127 53 112 0.0 0.9 0.00 0.00 0.00 95 1009.6
20260510013624 53 207 0.0 0.0 0.00 0.00 0.00 95 1009.4
20260510013125 53 206 0.0 0.0 0.00 0.00 0.00 95 1009.4
20260510012624 53 207 0.0 0.0 0.00 0.00 0.00 95 1009.2
20260510012125 54 206 0.0 0.0 0.00 0.00 0.00 95 1009.2
20260510011624 53 207 0.0 0.0 0.00 0.00 0.00 94 1009.1
20260510010624 54 206 0.0 0.0 0.00 0.00 0.00 95 1008.9
20260510010125 54 206 0.0 0.0 0.00 0.00 0.00 94 1009.0
20260510005622 54 205 0.0 0.0 0.00 0.00 0.00 95 1009.1
20260510005123 54 359 0.0 0.0 0.00 0.00 0.00 95 1009.0
20260510004622 54 206 0.0 0.0 0.00 0.00 0.00 94 1009.0
20260510003622 54 206 0.0 0.0 0.00 0.00 0.00 94 1008.9
20260510003122 54 206 0.0 0.9 0.00 0.00 0.00 94 1008.9
20260510002122 54 359 0.0 0.9 0.00 0.00 0.00 95 1008.9
20260510001123 55 211 0.0 0.0 0.00 0.00 0.00 94 1008.9
20260510000620 55 359 0.0 0.0 0.00 0.00 0.00 94 1008.8
20260510000122 55 210 0.0 0.0 0.00 0.00 0.00 94 1008.8
20260509235620 55 210 0.0 0.9 0.00 0.00 0.00 94 1008.9
20260509235120 55 359 0.0 0.9 0.00 0.00 0.00 94 1008.9
20260509234621 55 224 0.0 0.9 0.00 0.00 0.00 94 1008.9
20260509233621 55 153 0.0 0.0 0.00 0.00 0.00 94 1009.0
20260509233121 55 153 0.0 0.0 0.00 0.00 0.00 94 1009.1
20260509232620 55 154 0.0 0.9 0.00 0.00 0.00 94 1009.0
20260509232120 55 153 0.0 1.7 0.00 0.00 0.00 94 1008.9
20260509231618 55 166 0.0 1.7 0.00 0.00 0.00 94 1008.8
20260509231119 55 359 0.0 0.9 0.00 0.00 0.00 94 1008.9
20260509230618 55 241 0.0 0.9 0.00 0.00 0.00 94 1008.8
20260509230118 55 171 0.0 0.9 0.00 0.00 0.00 94 1008.5